This is the latest recevied weather packets stored in our database for station/object KC4GS-13. If no packets are shown the sender has not sent any weather packets the latest 10 day(s).
| Time | Temp. | Humidity | Pressure | Rain* | Wind** | Luminosity | Snow |
|---|---|---|---|---|---|---|---|
| 1777918174 | 27.22° C | 32% | 1017.3 hPa | 0 mm | - | 697 W/m² | - |
| 1777917872 | 26.67° C | 32% | 1017.4 hPa | 0 mm | - | 755 W/m² | - |
| 1777917570 | 26.67° C | 30% | 1017.5 hPa | 0 mm | - | 781 W/m² | - |
| 1777917267 | 26.67° C | 31% | 1017.6 hPa | 0 mm | - | 792 W/m² | - |
| 1777916965 | 26.11° C | 30% | 1017.7 hPa | 0 mm | - | 777 W/m² | - |
| 1777916662 | 26.67° C | 31% | 1017.6 hPa | 0 mm | - | 755 W/m² | - |
| 1777916359 | 26.67° C | 32% | 1017.8 hPa | 0 mm | - | 762 W/m² | - |
| 1777916056 | 26.11° C | 32% | 1017.7 hPa | 0 mm | - | 783 W/m² | - |
| 1777915753 | 26.11° C | 31% | 1017.9 hPa | 0 mm | - | 799 W/m² | - |
| 1777915449 | 25.56° C | 32% | 1017.9 hPa | 0 mm | - | 825 W/m² | - |
| 1777915145 | 25° C | 33% | 1018 hPa | 0 mm | - | 782 W/m² | - |
| 1777914843 | 25° C | 32% | 1018.1 hPa | 0 mm | - | 765 W/m² | - |
| 1777914540 | 25° C | 35% | 1018.2 hPa | 0 mm | - | 799 W/m² | - |
| 1777914236 | 25° C | 34% | 1018.4 hPa | 0 mm | - | 791 W/m² | - |
| 1777913933 | 25° C | 34% | 1018.2 hPa | 0 mm | - | 772 W/m² | - |
| 1777913629 | 25° C | 33% | 1018.2 hPa | 0 mm | - | 774 W/m² | - |
| 1777913326 | 24.44° C | 32% | 1018.3 hPa | 0 mm | - | 638 W/m² | - |
| 1777913023 | 25° C | 30% | 1018.3 hPa | 0 mm | - | 696 W/m² | - |
| 1777912718 | 24.44° C | 34% | 1018.2 hPa | 0 mm | - | 628 W/m² | - |
| 1777912415 | 24.44° C | 34% | 1018.2 hPa | 0 mm | - | 248 W/m² | - |
| 1777912111 | 23.89° C | 36% | 1018.3 hPa | 0 mm | - | 290 W/m² | - |
| 1777911807 | 23.89° C | 34% | 1019 hPa | 0 mm | - | 278 W/m² | - |
| 1777911504 | 23.89° C | 33% | 1018.7 hPa | 0 mm | - | 127 W/m² | - |
| 1777911201 | 23.89° C | 33% | 1018.7 hPa | 0 mm | - | 122 W/m² | - |
| 1777910898 | 24.44° C | 35% | 1018.9 hPa | 0 mm | - | 593 W/m² | - |
* Rain latest hour (hover to see other rain measurements)
** Current wind speed in m/s (hover to see current wind gust speed)